TimeCST,TemperatureF,Dew PointF,Humidity,Sea Level PressureIn,VisibilityMPH,Wind Direction,Wind SpeedMPH,Gust SpeedMPH,PrecipitationIn,Events,Conditions,WindDirDegrees,DateUTC
12:52 AM,32.0,19.9,61,29.91,10.0,SSW,9.2,-,N/A,,Partly Cloudy,200,2012-11-25 06:52:00
1:52 AM,32.0,19.9,61,29.88,10.0,South,15.0,-,N/A,,Mostly Cloudy,190,2012-11-25 07:52:00
2:52 AM,32.0,21.0,64,29.89,10.0,SSW,11.5,-,N/A,,Clear,210,2012-11-25 08:52:00
3:52 AM,32.0,21.0,64,29.87,10.0,SW,9.2,-,N/A,,Clear,230,2012-11-25 09:52:00
4:52 AM,30.9,21.9,69,29.88,10.0,WSW,4.6,-,N/A,,Clear,240,2012-11-25 10:52:00
5:52 AM,27.0,19.9,75,29.88,10.0,WSW,4.6,-,N/A,,Clear,240,2012-11-25 11:52:00
6:52 AM,26.1,19.9,78,29.90,10.0,WSW,5.8,-,N/A,,Clear,250,2012-11-25 12:52:00
7:52 AM,26.1,19.9,78,29.92,10.0,West,6.9,-,N/A,,Clear,270,2012-11-25 13:52:00
8:52 AM,34.0,23.0,64,29.93,10.0,NW,10.4,-,N/A,,Clear,310,2012-11-25 14:52:00
9:52 AM,37.0,21.9,54,29.96,10.0,NNW,13.8,-,N/A,,Clear,340,2012-11-25 15:52:00
10:52 AM,39.9,21.9,49,29.95,10.0,NNW,10.4,-,N/A,,Clear,330,2012-11-25 16:52:00
11:52 AM,41.0,21.0,45,29.94,10.0,NNW,11.5,-,N/A,,Clear,340,2012-11-25 17:52:00
12:52 PM,42.1,24.1,49,29.95,10.0,NW,9.2,-,N/A,,Clear,310,2012-11-25 18:52:00
1:52 PM,41.0,24.1,51,29.95,10.0,WNW,9.2,-,N/A,,Clear,300,2012-11-25 19:52:00
2:52 PM,39.9,24.1,53,29.96,10.0,WNW,12.7,-,N/A,,Clear,290,2012-11-25 20:52:00
3:52 PM,39.9,25.0,55,29.99,10.0,WNW,8.1,-,N/A,,Mostly Cloudy,290,2012-11-25 21:52:00
4:52 PM,37.0,24.1,59,29.99,10.0,NW,6.9,-,N/A,,Clear,320,2012-11-25 22:52:00
5:52 PM,37.0,24.1,59,30.02,10.0,NW,9.2,-,N/A,,Clear,310,2012-11-25 23:52:00
6:52 PM,36.0,24.1,62,30.05,10.0,NNW,5.8,-,N/A,,Overcast,330,2012-11-26 00:52:00
7:52 PM,35.1,25.0,67,30.06,10.0,NW,6.9,-,N/A,,Overcast,320,2012-11-26 01:52:00
8:52 PM,34.0,25.0,70,30.07,10.0,NW,4.6,-,N/A,,Overcast,310,2012-11-26 02:52:00
9:52 PM,34.0,25.0,70,30.10,10.0,NW,8.1,-,N/A,,Mostly Cloudy,320,2012-11-26 03:52:00
10:52 PM,30.9,23.0,72,30.11,10.0,NW,5.8,-,N/A,,Clear,320,2012-11-26 04:52:00
11:52 PM,30.9,24.1,76,30.13,10.0,North,6.9,-,N/A,,Clear,350,2012-11-26 05:52:00